Date,TemperatureHighF,TemperatureAvgF,TemperatureLowF,DewpointHighF,DewpointAvgF,DewpointLowF,HumidityHigh,HumidityAvg,HumidityLow,PressureMaxIn,PressureMinIn,WindSpeedMaxMPH,WindSpeedAvgMPH,GustSpeedMaxMPH,PrecipitationSumIn
2013-1-1,41,31,24,32,27,23,100,87,68,30.44,30.32,9,1,9,0.00
2013-1-2,43,30,23,33,26,22,98,86,61,30.32,30.17,6,1,6,0.01
2013-1-3,39,31,22,32,27,20,96,84,65,30.24,30.12,5,0,5,0.00
2013-1-4,52,40,31,46,37,30,97,90,81,30.32,30.16,7,1,7,0.00
2013-1-5,39,36,32,35,34,31,97,92,84,30.19,30.15,5,0,5,0.03
2013-1-6,46,40,36,43,39,35,98,95,86,30.23,30.06,16,1,16,0.06
2013-1-7,53,48,44,50,46,42,95,92,86,30.21,29.97,24,8,24,0.07
2013-1-8,55,52,47,50,48,46,95,88,82,30.20,29.89,28,10,28,0.01
2013-1-9,51,42,35,47,40,34,97,91,78,29.98,29.68,22,6,22,0.37
2013-1-10,40,36,34,38,35,32,97,94,84,30.10,29.98,10,2,10,0.04
2013-1-11,39,32,26,35,30,24,98,91,67,30.30,30.09,10,1,10,0.00
2013-1-12,31,26,20,30,25,18,97,96,94,30.40,30.28,6,1,6,0.01
2013-1-13,29,27,26,27,26,24,97,92,88,30.50,30.39,6,1,6,0.00
2013-1-14,35,31,27,32,28,25,97,91,87,30.56,30.49,9,1,9,0.00
2013-1-15,38,35,31,36,33,30,97,94,90,30.65,30.55,8,2,8,0.00
2013-1-16,35,34,32,34,33,31,100,96,94,30.64,30.48,6,1,6,0.00
2013-1-17,38,33,29,35,31,28,98,94,85,30.48,30.30,6,1,6,0.00
2013-1-18,32,29,27,31,28,26,98,97,96,30.33,30.27,5,1,5,0.00
2013-1-19,30,29,28,30,28,27,98,98,97,30.34,30.28,5,1,5,0.00
2013-1-20,30,28,27,30,28,26,98,98,97,30.36,30.24,5,1,5,0.00
2013-1-21,30,28,26,29,27,25,98,97,96,30.29,30.16,6,1,6,0.00
2013-1-22,35,29,26,34,28,25,98,97,94,30.16,29.93,5,0,5,0.01
2013-1-23,34,32,30,34,32,30,98,98,96,30.19,29.88,6,0,6,0.79
2013-1-24,40,36,34,40,36,33,99,98,98,30.22,30.10,4,0,4,0.31
2013-1-25,52,47,40,50,46,39,99,96,91,30.12,29.95,13,3,13,0.25
2013-1-26,46,42,39,43,40,37,98,93,87,30.08,29.93,20,6,20,0.42
2013-1-27,43,40,38,41,39,37,98,96,91,30.15,30.04,14,6,14,0.25
2013-1-28,44,41,39,42,40,38,97,95,92,30.21,30.08,20,7,20,0.61
2013-1-29,46,44,43,45,43,42,97,96,94,30.48,30.21,15,6,15,0.12
2013-1-30,49,46,43,47,44,42,98,95,91,30.47,30.43,21,9,21,0.11
2013-1-31,56,48,43,49,45,42,99,90,72,30.44,30.31,8,1,8,0.02
2013-2-1,54,45,36,47,42,35,99,90,73,30.34,30.23,12,2,12,0.00
2013-2-2,50,38,28,45,36,27,99,94,80,30.30,30.24,9,1,9,0.01
2013-2-3,49,42,33,46,41,32,99,95,86,30.33,30.21,6,0,6,0.00
2013-2-4,51,44,38,46,42,37,100,93,77,30.22,29.92,9,1,9,0.00
2013-2-5,52,47,44,48,44,41,96,89,79,30.05,29.91,20,7,20,0.31
2013-2-6,53,47,43,44,42,40,94,83,68,30.09,29.83,22,6,22,0.05
2013-2-7,50,42,35,40,37,34,96,85,60,30.12,29.92,18,4,18,0.04
2013-2-8,44,37,32,38,35,31,98,92,77,30.27,30.12,8,1,8,0.02
2013-2-9,46,40,34,42,38,32,97,93,83,30.29,30.25,8,2,8,0.17
2013-2-10,44,42,39,40,39,38,97,90,80,30.33,30.28,5,1,5,0.10
2013-2-11,46,43,40,42,39,37,93,86,77,30.39,30.30,12,4,12,0.01
2013-2-12,56,49,44,49,46,42,95,89,74,30.47,30.38,14,6,14,0.01
2013-2-13,48,48,48,46,45,45,92,90,89,30.44,30.42,8,4,8,0.00
2013-2-15,49,46,44,41,40,39,87,81,75,30.25,30.23,3,1,9,0.00
2013-2-16,49,42,36,41,37,33,97,83,56,30.29,30.13,5,0,8,0.01
2013-2-17,44,36,33,38,33,31,95,90,76,30.14,29.97,6,1,12,0.01
2013-2-18,48,45,42,38,37,36,87,74,65,29.97,29.73,14,5,14,0.02
2013-2-19,55,43,37,42,38,35,94,82,53,29.98,29.67,12,3,12,0.06
2013-2-20,48,40,35,40,37,34,98,89,70,30.09,29.99,20,5,20,0.12
2013-2-21,44,42,38,41,39,37,94,90,84,30.20,30.09,18,7,18,0.05
2013-2-22,45,43,39,43,41,36,96,90,84,30.17,29.89,26,12,26,0.50
2013-2-23,49,41,36,42,37,34,96,85,62,30.43,30.08,15,5,15,0.12
2013-2-24,52,43,35,39,36,32,94,77,52,30.43,30.05,22,6,22,0.03
2013-2-25,48,42,37,40,37,34,91,83,59,30.38,30.02,30,10,30,0.15
2013-2-26,54,43,35,40,37,33,95,80,50,30.38,30.22,10,2,10,0.00
2013-2-27,53,47,42,44,40,37,93,77,62,30.29,30.20,21,5,21,0.00
2013-2-28,57,53,46,53,50,44,95,91,85,30.43,30.18,20,8,20,0.04
2013-3-1,64,56,50,54,51,48,93,84,66,30.43,30.30,15,4,15,0.00
2013-3-2,55,50,41,50,47,39,97,91,81,30.30,30.15,13,2,13,0.10
2013-3-3,50,41,32,41,34,30,98,80,53,30.31,30.22,10,2,10,0.01
2013-3-4,60,41,26,38,33,25,98,77,38,30.22,29.89,7,1,7,0.00
2013-3-5,51,43,35,45,40,33,96,91,76,29.89,29.61,14,2,14,0.23
2013-3-6,45,42,40,44,40,39,100,94,86,29.95,29.53,16,5,16,0.39
2013-3-7,58,44,31,44,37,30,98,78,46,30.03,29.96,8,1,8,0.01
2013-3-8,60,43,31,44,36,30,98,80,44,30.19,30.01,9,1,9,0.00
2013-3-9,64,45,30,45,37,28,100,77,39,30.47,30.19,10,1,10,0.00
2013-3-10,54,45,34,45,40,32,94,82,64,30.48,30.39,7,1,7,0.00
2013-3-11,57,50,44,51,47,42,96,89,78,30.41,30.23,7,1,7,0.01
2013-3-12,61,52,45,52,48,44,97,87,68,30.22,30.13,13,2,13,0.00
2013-3-13,66,54,45,54,49,43,96,83,62,30.22,30.06,7,1,7,0.00
2013-3-14,59,53,48,50,48,44,96,82,60,30.20,30.02,16,4,16,0.00
2013-3-15,64,56,48,51,49,45,93,78,54,30.21,30.13,13,4,13,0.00
2013-3-16,50,46,40,46,43,36,91,87,79,30.17,30.00,24,8,24,0.27
2013-3-17,49,42,37,40,36,34,91,81,64,30.30,30.16,14,5,14,0.02
2013-3-18,57,43,32,42,36,30,97,76,45,30.28,30.08,12,2,12,0.00
2013-3-19,47,42,36,45,38,32,97,87,70,30.12,29.65,9,2,9,0.73
2013-3-20,53,48,39,50,43,33,98,84,68,30.21,29.53,27,13,27,0.39
2013-3-21,48,41,37,40,36,33,91,82,56,30.31,30.16,20,8,20,0.10
2013-3-22,50,40,34,41,35,32,95,85,53,30.38,30.29,14,3,14,0.04
2013-3-23,54,40,33,39,34,28,98,79,42,30.38,30.25,9,1,9,0.00
2013-3-24,58,44,33,42,36,31,95,77,48,30.25,30.06,7,1,7,0.00
2013-3-25,60,47,36,43,38,34,95,75,44,30.06,29.88,9,2,9,0.00
2013-3-26,54,47,40,46,44,38,93,87,74,30.01,29.94,7,2,7,0.03
2013-3-27,64,49,39,50,45,37,97,86,52,29.99,29.88,10,2,10,0.22
2013-3-28,66,54,44,52,47,43,97,81,46,30.12,29.98,12,3,12,0.02
2013-3-29,69,56,46,53,49,45,96,80,51,30.18,30.10,9,2,9,0.00
2013-3-30,77,58,42,53,48,41,97,73,37,30.15,29.92,12,2,12,0.01
2013-3-31,78,60,48,57,51,46,94,75,46,29.99,29.88,14,2,14,0.00
2013-4-1,66,57,52,55,51,48,91,81,65,30.17,29.99,14,4,14,0.00
2013-4-2,71,57,49,55,50,46,91,78,48,30.19,30.09,15,3,15,0.00
2013-4-3,65,52,40,55,48,38,98,87,67,30.15,29.88,8,1,8,0.00
2013-4-4,61,56,53,57,53,48,95,88,73,29.89,29.67,23,5,23,0.13
2013-4-5,59,54,51,52,50,48,95,86,72,29.94,29.80,21,9,21,0.31
2013-4-6,56,50,47,52,48,45,96,91,74,29.99,29.68,24,7,24,0.77
2013-4-7,52,48,42,49,43,38,93,84,72,29.96,29.56,31,13,31,0.18
2013-4-8,54,46,40,45,41,37,92,81,65,30.27,29.96,12,5,12,0.00
2013-4-9,57,52,42,49,45,39,89,78,63,30.33,30.19,5,1,10,0.00
2013-4-10,60,53,42,53,46,40,91,76,61,30.32,30.12,27,10,27,0.10
2013-4-11,56,48,38,43,40,36,94,77,56,30.33,30.16,8,2,8,0.00
2013-4-12,53,46,34,45,40,33,95,80,60,30.16,29.85,20,5,20,0.04
2013-4-13,52,44,39,41,37,34,91,76,57,30.09,29.92,20,8,20,0.09
2013-4-14,51,43,40,42,39,36,94,85,65,30.09,29.92,13,6,13,0.22
2013-4-15,56,46,37,42,39,33,96,79,42,30.19,29.94,12,3,12,0.06
2013-4-16,60,48,37,46,41,35,98,78,45,30.38,30.16,13,2,13,0.01
2013-4-17,62,48,34,46,41,32,97,78,47,30.48,30.38,10,3,10,0.00
2013-4-18,64,53,46,49,45,42,91,75,55,30.47,30.31,10,2,10,0.03
2013-4-19,58,52,49,54,49,46,97,90,76,30.31,30.16,20,8,20,0.43
2013-4-20,65,53,47,49,46,42,94,77,52,30.33,30.24,14,4,14,0.00
2013-4-21,55,50,45,48,44,41,88,80,70,30.30,30.22,12,5,12,0.00
2013-4-22,66,52,40,43,37,29,93,61,27,30.39,30.29,20,7,20,0.00
2013-4-23,70,53,34,43,35,30,89,56,25,30.35,30.11,13,4,13,0.00
2013-4-24,76,58,40,42,38,34,82,51,23,30.22,29.97,13,4,13,0.00
2013-4-25,76,59,40,49,42,36,88,57,31,30.12,29.99,8,2,8,0.00
2013-4-26,81,61,42,52,44,34,95,61,21,30.22,30.12,7,2,7,0.00
2013-4-27,74,59,44,47,42,36,84,57,27,30.24,30.16,13,4,13,0.00
2013-4-28,67,58,51,49,46,40,84,68,41,30.26,30.09,14,7,14,0.00
2013-4-29,58,58,58,46,46,46,64,64,64,30.10,30.10,2,1,2,0.00
2013-4-30,58,56,42,46,43,33,72,62,45,30.42,30.10,6,1,6,0.00
2013-5-1,70,53,33,45,38,30,93,60,33,30.49,30.39,12,4,12,0.00
2013-5-2,80,61,38,46,40,34,89,50,21,30.41,30.20,12,3,12,0.00
2013-5-3,81,63,44,49,43,38,80,51,25,30.27,30.09,12,4,12,0.00
2013-5-4,82,68,51,49,41,34,73,44,20,30.10,29.84,25,7,25,0.00
2013-5-5,86,70,51,46,40,34,68,38,18,29.86,29.64,21,7,21,0.00
2013-5-6,81,65,52,56,49,45,76,58,35,29.87,29.72,20,7,20,0.00
2013-5-7,78,61,47,58,50,44,95,71,45,30.02,29.87,16,6,16,0.00
2013-5-8,68,56,46,55,50,44,95,80,58,30.13,30.02,9,2,9,0.00
2013-5-9,78,62,45,57,51,44,96,71,40,30.17,30.03,13,3,13,0.00
2013-5-10,83,66,49,58,52,47,91,64,34,30.17,30.07,13,2,13,0.00
2013-5-11,87,69,54,64,57,50,89,67,34,30.16,29.97,10,2,10,0.00
2013-5-12,73,64,59,62,58,54,94,79,64,30.10,30.04,10,3,10,0.02
2013-5-13,68,59,51,58,53,46,96,80,55,30.20,30.03,25,6,25,0.07
2013-5-14,72,57,43,47,43,33,97,64,26,30.21,30.07,9,2,9,0.00
2013-5-15,61,54,48,54,48,42,93,81,71,30.10,30.00,12,2,12,0.12
2013-5-16,60,56,52,56,53,50,96,90,76,30.00,29.93,13,2,13,0.18
2013-5-17,64,54,46,54,49,45,97,83,51,30.09,29.98,16,3,16,0.08
2013-5-18,58,54,50,53,50,46,95,88,78,30.25,30.09,12,2,12,0.10
2013-5-19,65,57,49,53,50,45,96,78,56,30.38,30.25,12,3,12,0.16
2013-5-20,74,56,42,52,46,38,95,71,33,30.32,29.90,9,3,9,0.00
2013-5-21,56,48,42,47,44,39,94,87,70,29.99,29.82,20,7,20,0.55
2013-5-22,48,45,42,46,42,39,93,90,86,29.99,29.93,23,12,23,0.58
2013-5-23,57,49,45,48,45,42,92,85,63,30.01,29.96,23,11,23,0.46
2013-5-24,59,52,48,51,47,45,93,85,67,30.07,29.97,23,9,23,0.22
2013-5-25,68,57,47,52,48,44,94,72,42,30.06,29.91,15,5,15,0.09
2013-5-26,63,56,52,54,51,47,95,81,62,30.02,29.93,20,7,20,0.35
2013-5-27,64,56,50,59,51,46,95,85,73,29.98,29.72,25,8,25,0.85
2013-5-28,64,56,52,53,49,46,96,78,54,29.92,29.75,20,7,20,0.25
2013-5-29,64,56,50,52,49,45,95,81,57,30.07,29.60,29,10,29,0.26
2013-5-30,65,55,50,52,48,45,92,77,56,30.24,30.06,14,4,14,0.01
2013-5-31,71,59,47,52,48,45,93,70,44,30.31,30.20,12,3,12,0.00
2013-6-1,78,62,44,59,52,43,97,74,48,30.22,29.99,8,1,8,0.00
2013-6-2,73,62,54,57,53,50,89,72,48,30.06,30.00,13,2,13,0.00
2013-6-3,75,61,48,55,50,46,93,70,40,30.09,29.99,15,5,15,0.00
2013-6-4,84,66,48,57,52,46,92,64,34,30.06,29.92,12,4,12,0.00
2013-6-5,85,70,53,60,54,49,92,61,31,30.05,29.92,12,3,12,0.00
2013-6-6,84,70,58,64,57,43,88,65,41,30.02,29.93,9,3,9,0.00
2013-6-7,80,66,51,61,51,38,89,60,26,30.12,30.02,13,3,13,0.00
2013-6-8,80,66,52,54,49,40,88,59,31,30.15,30.00,10,5,10,0.00
2013-6-9,74,62,52,53,49,45,85,64,39,30.08,29.94,16,6,16,0.00
2013-6-10,73,59,47,51,46,43,87,64,42,30.01,29.86,13,4,13,0.00
2013-6-11,67,58,52,51,48,43,83,68,48,30.13,29.97,14,4,14,0.00
2013-6-12,65,58,51,52,48,46,88,72,55,30.17,30.11,12,3,12,0.00
2013-6-13,60,55,50,56,51,46,96,88,78,30.28,30.15,15,4,15,0.35
2013-6-14,69,58,45,52,49,43,96,73,52,30.28,29.96,14,4,14,0.00
2013-6-15,80,67,49,58,52,45,92,63,31,29.99,29.88,12,4,12,0.00
2013-6-16,76,62,50,57,53,48,93,74,49,30.09,30.00,10,4,10,0.00
2013-6-17,79,63,50,57,52,48,92,70,39,30.09,29.92,20,4,20,0.00
2013-6-18,71,60,53,58,51,47,91,73,47,29.99,29.91,16,4,16,0.05
2013-6-19,66,58,50,57,51,47,92,79,61,30.08,29.94,12,4,12,0.01
2013-6-20,68,58,52,57,52,48,88,79,59,30.12,30.04,12,4,12,0.09
2013-6-21,75,62,54,55,52,48,92,70,42,30.16,30.07,8,2,8,0.00
2013-6-22,84,66,48,58,52,46,95,65,33,30.09,29.82,9,2,9,0.00
2013-6-23,72,64,59,64,59,51,96,83,61,29.83,29.61,7,1,7,0.33
2013-6-24,67,60,56,60,56,53,96,86,67,29.70,29.62,20,4,20,0.17
2013-6-25,59,58,57,57,56,55,96,95,94,29.66,29.65,1,0,1,0.00
2013-6-26,80,68,59,65,60,57,94,77,59,30.09,29.97,5,1,11,0.01
2013-6-27,84,77,65,67,64,61,88,65,53,30.12,30.09,9,3,9,0.00
2013-6-28,93,74,59,72,64,57,97,73,42,30.11,29.97,9,2,9,0.00
2013-6-29,91,75,61,66,61,56,87,64,40,30.08,29.92,8,2,8,0.00
2013-6-30,98,77,60,71,64,58,95,68,34,29.94,29.79,9,2,9,0.00
2013-7-1,77,77,77,64,64,64,64,64,64,29.84,29.84,0,0,0,0.00
2013-7-2,77,77,77,64,64,64,64,64,64,29.84,29.84,0,0,0,0.00
2013-7-3,87,77,62,59,50,39,76,44,21,30.07,29.98,13,3,13,0.00
2013-7-4,77,65,54,56,52,46,86,64,44,30.12,29.99,13,5,13,0.00
2013-7-5,75,65,56,57,53,50,84,68,50,30.05,29.91,12,2,12,0.00
2013-7-6,77,64,50,60,55,49,96,75,53,29.95,29.82,14,3,14,0.00
2013-7-7,80,66,51,63,57,49,97,75,52,29.95,29.84,10,2,10,0.00
2013-7-8,83,67,50,59,55,49,97,69,40,30.06,29.95,12,3,12,0.00
2013-7-9,91,73,54,65,59,52,96,64,30,30.05,29.92,10,3,10,0.00
2013-7-10,84,70,54,60,55,46,78,60,41,30.04,29.88,12,5,12,0.00
2013-7-11,78,64,52,52,49,46,82,60,35,30.07,29.91,12,6,12,0.00
2013-7-12,78,63,49,54,50,45,89,63,38,30.08,29.97,12,4,12,0.00
2013-7-13,81,66,50,50,46,37,88,54,21,30.13,29.98,18,6,18,0.00
2013-7-14,88,70,52,55,49,40,87,52,20,30.06,29.91,14,5,14,0.00
2013-7-15,86,70,53,55,49,40,76,49,31,29.98,29.76,14,5,15,0.03
2013-7-16,84,70,58,59,54,49,81,59,41,29.97,29.72,13,5,13,0.00
2013-7-17,80,66,58,57,55,52,88,68,39,30.14,29.97,12,5,12,0.02
2013-7-18,83,68,53,60,54,48,94,66,29,30.17,30.02,13,5,13,0.00
2013-7-19,84,66,52,62,56,49,92,73,44,30.11,29.95,13,4,13,0.00
2013-7-20,80,70,55,61,58,52,91,66,51,30.03,29.90,13,4,13,0.00
2013-7-21,83,68,53,61,56,50,92,68,42,29.97,29.84,13,5,13,0.00
2013-7-22,83,69,56,59,55,49,91,66,34,30.02,29.90,14,7,14,0.00
2013-7-23,90,73,54,62,58,51,91,64,36,30.01,29.88,14,4,14,0.00
2013-7-24,90,75,56,60,56,51,89,56,26,30.00,29.90,13,5,13,0.00
2013-7-25,90,75,59,58,53,44,80,51,22,30.05,29.95,14,6,14,0.00
2013-7-26,92,73,56,56,50,40,81,49,22,30.12,30.01,15,6,15,0.00
2013-7-27,83,67,53,54,49,42,81,55,32,30.16,29.95,12,4,12,0.00
2013-7-28,77,62,48,55,51,45,91,68,43,30.05,29.92,13,4,13,0.00
2013-7-29,79,65,55,56,52,49,83,66,36,30.00,29.90,10,3,10,0.00
2013-7-30,81,66,51,59,55,49,93,69,41,30.11,30.00,11,3,11,0.00
2013-7-31,78,63,54,61,56,52,93,78,51,30.08,29.98,16,3,16,0.00
2013-8-1,65,61,57,56,54,53,92,80,70,30.10,30.03,13,5,13,0.00
2013-8-2,75,64,58,55,54,52,87,71,49,30.13,30.06,10,3,10,0.00
2013-8-3,82,72,55,60,57,51,87,63,44,30.08,29.93,13,5,13,0.00
2013-8-4,90,72,55,63,59,53,94,65,35,29.99,29.84,10,3,10,0.00
2013-8-5,91,74,57,62,58,52,94,62,29,29.97,29.85,12,3,12,0.00
2013-8-6,92,74,54,56,49,37,90,47,15,29.96,29.83,12,2,12,0.00
2013-8-7,84,69,56,57,54,51,85,61,33,30.01,29.90,13,4,13,0.00
2013-8-8,82,68,56,62,56,52,87,68,47,30.03,29.86,13,6,13,0.00
2013-8-9,83,71,62,64,58,54,83,65,42,29.91,29.80,12,3,12,0.03
2013-8-10,69,69,69,63,63,63,83,83,83,29.88,29.88,0,0,0,0.00
2013-8-11,80,70,59,62,59,56,88,68,51,30.00,29.95,7,1,7,0.00
2013-8-12,80,67,59,61,57,53,89,74,51,30.04,29.98,9,2,9,0.00
2013-8-13,86,68,50,60,54,48,96,66,33,30.08,29.88,8,2,8,0.00
2013-8-14,90,71,56,60,56,47,90,62,23,29.94,29.88,12,2,12,0.00
2013-8-15,82,72,63,68,63,58,90,75,58,29.94,29.90,10,1,10,0.00
2013-8-16,86,72,64,68,63,53,94,75,47,30.01,29.92,10,2,10,0.00
2013-8-17,88,70,55,63,58,52,94,68,40,30.06,29.97,10,3,10,0.00
2013-8-18,87,70,54,62,58,52,97,70,37,30.11,29.98,10,2,10,0.00
2013-8-19,88,71,57,60,57,53,94,64,35,30.08,29.97,12,4,12,0.00
2013-8-20,83,68,52,57,52,47,89,60,29,30.10,29.94,15,5,15,0.00
2013-8-21,90,71,53,58,54,49,88,60,31,29.97,29.79,12,2,12,0.00
2013-8-22,86,72,59,64,58,53,92,64,39,29.87,29.79,10,2,10,0.20
2013-8-23,75,64,57,61,58,55,95,81,57,29.92,29.84,9,2,9,0.15
2013-8-24,80,68,60,61,57,55,90,71,46,29.89,29.81,7,2,7,0.00
2013-8-25,70,62,55,62,58,52,94,85,72,29.92,29.87,6,1,6,0.17
2013-8-26,80,66,59,62,57,51,95,76,37,29.94,29.86,20,4,20,0.01
2013-8-27,83,70,60,64,60,57,92,72,47,29.94,29.75,9,2,9,0.00
2013-8-28,81,70,60,65,62,59,97,76,53,29.88,29.81,8,1,8,0.03
2013-8-29,78,69,64,69,64,62,97,85,62,30.04,29.81,15,4,15,0.09
2013-8-30,84,71,63,64,61,58,96,73,45,30.12,30.00,9,2,9,0.03
2013-8-31,66,63,61,59,58,57,88,85,79,30.01,29.98,5,0,5,0.00
2013-9-1,89,78,65,59,56,52,73,48,31,29.85,29.75,10,1,11,0.00
2013-9-2,82,70,61,63,58,53,87,65,43,29.90,29.84,12,2,12,0.00
2013-9-3,82,68,60,62,59,55,96,74,44,29.97,29.89,7,1,7,0.15
2013-9-4,77,68,58,61,58,55,94,74,55,30.02,29.96,9,2,9,0.00
2013-9-5,66,62,58,62,60,56,97,93,78,30.02,29.94,18,3,18,0.12
2013-9-6,69,62,58,63,59,55,98,90,73,30.11,30.01,20,5,20,0.06
2013-9-7,79,65,52,63,58,51,98,80,52,30.08,29.92,8,2,8,0.03
2013-9-8,84,68,55,65,60,54,98,76,42,30.04,29.94,10,3,10,0.03
2013-9-9,82,68,56,66,61,54,98,80,53,30.01,29.87,10,3,10,0.02
2013-9-10,90,72,59,68,63,58,97,76,44,29.89,29.71,9,2,9,0.02
2013-9-11,94,73,59,66,61,55,89,67,37,29.91,29.76,12,4,12,0.00
2013-9-12,82,67,57,65,60,55,94,79,54,29.98,29.86,12,3,12,0.00
2013-9-13,74,64,56,65,59,54,95,86,71,29.95,29.80,10,2,10,0.00
2013-9-14,82,67,60,67,62,58,96,84,59,29.83,29.67,9,2,9,0.01
2013-9-15,66,63,60,62,59,57,95,88,81,29.88,29.69,13,4,13,0.01
2013-9-16,72,64,59,61,57,55,93,81,62,29.96,29.87,13,4,13,0.01
2013-9-17,69,61,56,59,55,50,93,80,51,30.00,29.84,8,2,8,0.01
2013-9-18,74,62,53,57,52,48,93,74,42,30.08,29.97,9,2,9,0.00
2013-9-19,82,60,44,57,50,42,98,75,37,29.97,29.75,8,1,8,0.00
2013-9-20,73,59,47,58,53,45,96,82,57,29.75,29.64,15,3,15,0.01
2013-9-21,68,60,53,59,55,52,98,85,60,29.77,29.66,12,2,12,0.00
2013-9-22,62,58,55,57,54,52,95,89,71,29.85,29.66,27,8,27,0.01
2013-9-23,61,57,54,58,55,53,97,92,84,29.98,29.85,14,4,14,0.01
2013-9-24,60,54,50,56,52,49,98,94,77,29.97,29.85,13,1,13,0.00
2013-9-25,65,53,49,52,49,47,96,87,59,30.02,29.84,9,2,9,0.01
2013-9-26,70,55,48,53,50,47,97,85,51,30.15,30.02,7,1,7,0.01
2013-9-27,57,52,45,54,50,44,97,92,80,30.15,29.91,24,7,24,0.00
2013-9-28,65,58,52,59,56,51,97,91,76,29.91,29.50,32,11,32,0.01
2013-9-29,57,54,52,55,52,50,95,90,84,29.68,29.38,33,14,33,1.68
2013-9-30,58,53,51,53,49,47,91,85,79,29.99,29.61,28,13,28,0.34
2013-10-1,60,52,46,52,49,43,97,88,71,30.18,29.97,15,3,15,0.01
2013-10-2,55,47,41,50,45,40,97,93,81,30.17,30.06,12,2,12,0.00
2013-10-3,58,48,41,49,45,40,98,90,61,30.40,30.17,9,1,9,0.01
2013-10-4,65,47,36,54,44,36,97,89,66,30.44,30.31,8,1,8,0.01
2013-10-5,71,51,36,56,46,36,97,83,51,30.32,30.11,6,1,6,0.01
2013-10-6,76,55,40,58,47,39,98,77,38,30.12,29.94,14,2,14,0.00
2013-10-7,62,54,51,52,49,46,95,81,57,30.13,29.97,18,6,18,0.15
2013-10-8,55,52,44,53,48,42,95,88,81,30.14,29.97,13,4,13,0.00
2013-10-9,58,47,41,48,43,39,97,87,63,30.09,29.95,12,4,12,0.00
2013-10-10,61,51,42,51,46,41,96,84,60,30.07,29.94,9,2,9,0.00
2013-10-11,51,50,49,48,47,46,90,89,88,30.09,30.07,1,0,1,0.00
2013-10-12,59,52,43,49,46,41,96,82,63,30.15,30.06,9,2,9,0.14
2013-10-13,62,49,40,50,44,39,97,85,59,30.28,30.15,10,3,10,0.00
2013-10-14,67,51,37,49,44,36,97,80,51,30.34,30.24,14,3,14,0.01
2013-10-15,68,51,36,47,41,34,94,71,38,30.29,30.10,10,2,10,0.00
2013-10-16,66,49,37,49,43,36,97,81,52,30.14,30.08,8,1,8,0.00
2013-10-17,65,50,38,52,45,37,98,86,60,30.21,30.11,7,1,7,0.00
2013-10-18,74,51,35,54,44,34,98,80,42,30.15,30.04,6,1,6,0.00
2013-10-19,69,50,36,55,45,34,98,85,56,30.14,30.06,5,0,5,0.00
2013-10-20,65,48,36,53,44,35,98,89,60,30.14,30.03,6,0,6,0.00
2013-10-21,69,50,39,58,47,37,98,90,64,30.07,29.94,5,0,5,0.01
2013-10-22,74,53,38,56,48,37,97,83,50,30.02,29.92,5,1,5,0.01
2013-10-23,69,51,39,56,48,38,100,88,61,30.00,29.91,5,1,5,0.01
2013-10-24,63,49,43,55,47,42,97,93,74,30.07,29.96,5,0,5,0.01
2013-10-25,52,49,43,50,48,42,98,95,91,30.25,30.07,8,1,8,0.01
2013-10-26,52,51,48,50,49,46,95,92,89,30.26,30.14,6,1,6,0.00
2013-10-27,56,50,43,52,47,41,98,89,73,30.16,29.81,15,3,15,0.22
2013-10-28,58,46,35,44,38,32,97,75,42,29.90,29.78,20,4,20,0.01
2013-10-29,63,42,29,41,34,28,97,75,32,30.04,29.90,7,1,7,0.00
2013-10-30,59,45,30,46,37,29,96,77,46,30.17,30.04,9,1,9,0.00
2013-10-31,57,54,50,53,49,44,95,85,75,30.25,30.13,14,3,15,0.00
2013-11-1,60,51,44,51,48,43,97,88,71,30.25,29.90,10,1,10,0.02
2013-11-2,57,50,45,51,46,40,95,86,62,30.06,29.74,25,9,25,0.87
2013-11-3,50,45,42,46,43,40,95,91,76,30.16,30.06,12,4,12,0.11
2013-11-4,50,47,44,48,45,43,98,92,86,30.16,30.09,13,5,13,0.08
2013-11-5,53,51,48,52,50,47,97,94,90,30.22,30.07,16,5,16,0.13
2013-11-6,54,52,48,53,51,48,100,97,96,30.27,30.06,7,1,7,0.99
2013-11-7,56,52,47,54,49,45,98,90,76,30.12,29.87,24,8,24,1.18
2013-11-8,52,48,43,49,46,42,98,91,83,30.19,30.10,13,2,13,0.03
2013-11-9,49,45,39,46,43,38,100,93,87,30.10,30.02,2,0,3,0.00
2013-11-10,58,47,41,51,45,40,98,91,75,30.07,30.02,6,0,6,0.00
2013-11-11,50,45,40,48,44,39,98,97,90,30.13,29.99,7,1,7,0.02
2013-11-12,58,50,44,55,49,43,98,95,88,30.41,30.05,12,2,12,0.37
2013-11-13,50,48,44,50,47,43,98,97,94,30.46,30.28,7,2,7,0.01
2013-11-14,51,47,42,47,45,41,98,94,84,30.28,30.08,9,2,9,0.01
2013-11-15,48,45,42,44,43,41,98,93,85,30.09,29.56,28,8,28,0.04
2013-11-16,49,47,45,46,42,40,95,84,75,29.85,29.55,24,9,24,0.02
2013-11-17,54,50,46,47,44,42,91,81,72,29.98,29.85,24,12,24,0.01
2013-11-18,54,52,50,49,46,43,92,82,71,29.96,29.71,22,10,22,0.19
2013-11-19,53,48,38,52,45,33,98,92,77,30.01,29.70,22,6,22,1.03
2013-11-20,47,36,30,37,31,22,96,82,60,30.36,30.01,16,5,16,0.01
2013-11-21,48,34,24,25,20,14,89,61,27,30.54,30.36,18,4,18,0.00
2013-11-22,50,32,21,28,24,18,93,74,36,30.54,30.36,12,1,12,0.00
2013-11-23,51,35,24,31,26,21,93,71,35,30.36,30.14,9,1,9,0.00
2013-11-24,53,34,24,34,28,23,97,81,47,30.27,30.14,5,0,5,0.01
2013-11-25,52,34,24,36,30,23,98,85,51,30.34,30.27,5,0,5,0.00
2013-11-26,44,35,26,37,32,25,97,89,74,30.27,30.05,5,0,5,0.01
2013-11-27,49,37,30,40,34,28,98,88,67,30.05,29.93,5,0,5,0.00
2013-11-28,51,36,26,40,33,25,98,87,64,30.19,30.00,6,0,6,0.00
2013-11-29,42,35,27,39,33,26,97,94,87,30.36,30.19,8,0,8,0.03
2013-11-30,51,45,39,47,43,38,96,93,87,30.36,30.20,15,2,15,0.00
2013-12-1,55,53,50,53,51,47,97,93,87,30.21,29.93,26,13,26,0.46
2013-12-2,51,43,35,50,40,33,97,90,70,30.04,29.92,20,6,20,0.10
2013-12-3,43,34,25,34,25,20,100,72,49,30.26,30.04,16,3,16,0.00
2013-12-4,38,28,21,22,19,15,91,71,42,30.32,30.25,12,2,12,0.00
2013-12-5,32,23,16,24,19,14,95,86,67,30.29,30.14,10,0,5,0.00
2013-12-6,31,27,24,25,19,10,92,71,49,30.14,29.92,16,4,16,0.00
2013-12-7,29,23,13,12,9,5,83,56,36,30.42,30.05,18,6,18,0.00
2013-12-8,28,17,8,17,11,5,92,78,51,30.59,30.42,5,0,5,0.00
2013-12-9,28,21,12,22,17,10,94,83,74,30.61,30.52,13,1,13,0.00
2013-12-10,36,28,22,28,24,20,95,85,73,30.54,30.39,4,0,4,0.00
2013-12-11,29,25,20,28,24,18,96,95,92,30.39,30.21,4,0,5,0.00
2013-12-12,44,29,20,42,28,19,98,95,91,30.22,30.11,16,2,16,0.20
2013-12-13,51,44,38,48,42,37,98,94,87,30.43,30.19,10,2,10,0.04
2013-12-14,40,38,34,39,37,33,98,97,96,30.46,30.36,7,1,7,0.40
2013-12-15,48,40,37,45,39,36,98,96,86,30.47,30.40,5,0,5,0.01
2013-12-16,43,41,39,42,40,38,99,98,97,30.46,30.24,7,1,7,0.01
2013-12-17,39,38,36,38,37,35,98,98,96,30.24,30.16,6,0,6,0.00
2013-12-18,41,38,32,41,37,30,100,96,89,30.18,30.04,10,0,10,0.06
2013-12-19,36,31,29,33,30,28,97,94,88,30.30,30.11,6,0,7,0.00
2013-12-20,46,38,31,44,36,30,97,93,84,30.23,29.88,25,7,27,0.01
2013-12-21,51,48,46,47,45,44,95,91,84,30.22,29.93,18,5,18,0.00
2013-12-22,53,48,43,50,46,42,97,92,87,30.34,30.22,15,6,15,0.03
2013-12-23,51,45,33,50,44,32,98,95,90,30.53,30.30,20,5,20,0.09
2013-12-24,43,36,32,42,35,31,99,97,94,30.59,30.47,8,1,8,0.00
2013-12-25,36,34,33,35,34,33,98,97,96,30.48,30.38,5,0,5,0.00
2013-12-26,34,33,32,34,32,31,98,98,97,30.39,30.23,4,0,4,0.01
2013-12-27,36,32,30,35,31,30,98,98,98,30.26,30.20,6,1,6,0.00
2013-12-30,41,41,40,39,38,38,93,92,90,30.21,30.17,6,1,6,0.00
2014-1-2,47,42,40,44,41,39,97,94,89,30.10,30.03,8,1,8,0.00